Location: Unspecified
(54.1780°N, 0.0000°E)
Time: 14:30:13
(UTC+00:00)

Tiros 1 - Pass Details

Date: 18 June 2019
Orbit: 631 x 664 km, 48.4° (Epoch: 24 August)

Event Time Altitude Azimuth Distance (km) Brightness Sun altitude
Rises 01:04:02 0° 212° (SSW) 2,930 - -11.2°
Reaches altitude 10° 01:06:52 10° 196° (SSW) 2,019 - -11.1°
Exits shadow 01:08:08 15° 182° (S) 1,709 8.7 -11.1°
Maximum altitude 01:10:11 20° 150° (SSE) 1,482 8.6 -11.0°
Drops below altitude 10° 01:13:30 10° 104° (ESE) 2,015 9.7 -10.9°
Sets 01:16:20 0° 87° (E) 2,923 10.8 -10.7°
